Location: Darmstadt
(49.8706°N, 8.6494°E)
Time: 07:07:08
(UTC+01:00)

MOS 1 Rocket - Pass Details

Date: 31 October 2020
Orbit: 615 x 829 km, 97.4° (Epoch: 03 December)

Event Time Altitude Azimuth Distance (km) Brightness Sun altitude
Rises 19:00:35 0° 16° (NNE) 3,062 6.5 -19.3°
Reaches altitude 10° 19:02:50 10° 22° (NNE) 2,173 5.6 -19.6°
Maximum altitude 19:07:31 54° 99° (E) 893 3.4 -20.4°
Drops below altitude 10° 19:12:27 10° 177° (S) 2,291 5.9 -21.2°
Sets 19:14:52 0° 182° (S) 3,245 6.7 -21.6°
